Location: Newark
(48.5667°N, 7.8167°E)
Time: 06:29:47
(UTC+00:00)

ISS - Pass Details

Date: 19 September 2021
Orbit: 417 x 423 km, 51.6° (Epoch: 18 October)

Event Time Altitude Azimuth Distance (km) Brightness Sun altitude
Rises 17:58:44 0° 214° (SW) 2,350 0.4 -5.1°
Reaches altitude 10° 18:01:00 10° 202° (SSW) 1,491 -0.8 -5.5°
Maximum altitude 18:03:52 26° 143° (SE) 854 -2.6 -6.0°
Drops below altitude 10° 18:06:45 10° 84° (E) 1,502 -1.6 -6.4°
Enters shadow 18:07:18 - 80° (E) 1,702 -1.3 -6.5°
